STPSAT-6

Last updated on Fri Dec 19 2025 00:02:53 GMT+0000 (Coordinated Universal Time)

1 49817U 21118A 25352.60318159 -.00000020 00000+0 00000+0 0 9993 2 49817 0.0190 298.2158 0002213 353.0528 261.6356 1.00266492 14767
UTC large
Height (km)
Speed (km/s)
/
Latitude / Longitude
Inclination (degrees)
Orbital Period (minutes)
Azimuth
Elevation
Range (km)
Doppler Factor

Next 0 passes for location: London (51.5072 / 0.1276)

Sorry there are no passes over London.